Temperature
22 20 20 21 21 22 21 20 20 19 19 18 17 17 17 17 17 17 17 17 18 18 18 18 18 18 19 19 19 18 18 18 18 17 17 17 17 16 16 16 16 15 15 15
21 21 22 22 22 21 21 20 19 19 19 18 17 17 17 17 17 17 17 17 18 18 18 18 18 18 19 19 19 18 18 18 18 17 17 17 16 16 16 15 15 15 14 14
22 23 23 23 22 22 21 20 19 19 19 18 18 18 17 17 17 17 17 18 18 18 19 19 19 19 19 19 18 18 18 18 17 17 16 16 16 15 15 15 14 14 14 13
22 23 23 23 22 22 21 21 20 19 18 16 17 17 17 16 16 17 17 18 18 19 19 19 19 19 19 19 18 18 17 17 17 16 16 15 15 15 14 14 14 13 13 13
23 23 23 23 23 22 20 20 19 18 17 16 16 16 16 16 17 17 17 18 19 19 19 19 19 19 19 18 18 17 17 17 16 16 15 15 14 14 13 13 13 12 12 12
22 23 23 23 22 21 20 18 17 15 15 17 16 16 16 16 17 17 18 19 19 20 20 19 19 19 19 18 18 17 17 16 16 15 15 14 14 13 13 12 12 12 12 11
22 23 23 22 21 21 19 17 17 17 16 16 16 16 16 17 17 17 18 19 20 20 20 20 19 19 19 18 18 17 17 16 15 15 14 14 13 13 12 12 11 11 11 11
22 22 23 23 22 20 19 18 18 19 18 16 16 16 16 18 18 19 19 19 20 20 20 20 19 19 19 18 17 17 16 15 15 14 13 13 12 12 12 11 11 11 10 10
22 22 24 24 23 21 19 18 17 16 16 17 16 16 17 18 18 18 18 19 20 20 20 20 19 19 18 18 17 16 15 15 14 13 13 12 12 11 11 11 11 10 10 10
22 22 23 23 23 22 20 17 15 16 17 18 18 17 17 19 19 18 18 19 20 20 20 19 19 19 18 17 16 15 15 14 13 13 12 12 11 11 11 10 10 10 10 10
21 21 22 22 23 23 21 19 15 14 16 16 17 17 17 18 18 17 18 20 20 20 20 19 19 18 17 16 16 15 14 13 13 12 12 11 11 11 10 10 10 10 10 9
19 18 19 21 21 22 22 20 17 18 17 15 16 17 18 17 17 18 19 20 20 20 19 19 18 17 17 16 15 14 13 13 12 12 11 11 11 10 10 10 10 9 9 9
19 18 19 20 20 21 22 20 17 15 14 14 16 18 18 17 17 18 19 20 20 19 19 18 18 17 16 15 14 13 13 12 12 11 11 11 10 10 10 10 10 9 9 9
19 18 19 21 20 21 21 21 18 17 16 16 16 18 19 18 17 17 19 20 19 19 18 18 17 17 16 15 14 13 12 12 11 11 11 10 10 10 10 10 10 9 9 9
19 20 20 20 20 21 21 21 20 19 18 17 18 17 18 17 16 18 19 19 19 18 18 18 17 16 15 14 13 12 12 12 11 11 10 10 10 10 10 9 9 9 9 9
18 20 21 21 22 21 21 21 21 20 19 18 19 18 17 17 18 18 18 18 18 19 18 18 17 16 15 14 13 12 12 11 11 10 10 10 10 10 9 9 9 9 9 8
17 18 19 19 20 21 21 22 21 21 20 19 19 19 18 17 17 18 19 19 19 19 18 17 16 15 14 13 12 12 11 11 11 10 10 10 10 10 9 9 9 9 8 8
16 16 16 18 20 21 20 20 21 21 20 19 19 18 16 18 20 20 20 20 19 19 18 17 16 15 14 13 12 12 11 11 10 10 10 10 9 9 9 9 9 9 8 8
15 16 15 16 19 20 20 20 20 20 21 19 18 18 18 17 18 19 20 20 19 18 17 16 15 14 14 13 12 12 11 11 10 10 10 10 9 9 9 9 9 9 8 8
15 15 16 16 19 20 20 21 21 21 20 19 18 17 16 16 15 17 21 20 19 18 17 16 15 14 14 13 12 11 11 11 10 10 10 10 9 9 9 9 9 9 8 8
18 17 17 16 18 18 19 20 21 20 19 21 21 20 17 17 19 21 21 20 19 18 17 16 15 14 14 13 12 11 11 11 10 10 10 10 9 9 9 9 9 8 8 8
18 17 16 15 18 19 20 20 19 20 23 23 23 22 21 22 22 21 21 20 19 18 17 16 15 14 14 13 12 12 11 11 10 10 10 10 9 9 9 9 9 9 8 8
16 17 16 16 18 20 20 21 23 23 24 24 24 23 22 22 22 21 21 20 19 18 17 16 15 14 14 13 12 12 11 11 10 10 10 10 10 9 9 9 9 9 8 8
18 16 16 16 17 20 22 23 24 24 24 25 25 24 23 22 22 21 21 20 19 18 17 16 15 15 14 13 12 12 11 11 10 10 10 10 10 10 9 9 9 8 8 8
18 18 17 17 17 20 23 24 24 24 24 24 24 24 23 23 22 22 21 20 19 18 17 16 16 15 14 13 13 12 11 11 10 10 10 10 10 9 9 9 9 9 8 8
14 16 16 17 19 18 20 22 22 23 24 24 23 23 23 22 22 22 21 20 19 18 17 16 16 15 14 14 13 12 11 11 10 10 10 10 10 9 9 9 9 9 9 8
Wind_Speed
3 3 4 7 7 5 3 3 2 1 1 4 5 4 3 2 2 2 3 4 4 4 3 3 3 4 4 4 4 4 4 4 3 2 2 2 1 1 1 2 3 3 3 3
3 4 7 4 3 4 4 3 2 2 2 3 4 2 1 2 3 4 5 6 6 4 4 5 5 4 4 4 4 4 4 3 2 2 1 1 1 0 0 1 3 3 4 4
6 5 2 2 3 3 2 4 4 4 3 5 2 2 1 2 1 2 4 4 5 7 8 7 7 7 6 5 5 4 4 3 2 2 2 2 2 2 2 2 2 3 4 5
4 3 2 2 3 4 1 2 6 6 4 3 3 2 4 2 3 4 4 4 6 7 7 7 7 7 7 6 4 4 4 3 2 2 2 2 1 1 3 2 2 4 5 5
4 2 2 3 3 4 3 6 7 6 5 3 5 2 6 1 3 5 6 6 6 7 8 8 8 7 5 4 5 5 4 3 2 2 2 2 2 3 2 2 4 5 5 5
4 2 3 2 4 6 8 7 7 6 5 3 3 1 6 3 5 5 5 5 6 6 7 7 5 4 3 3 4 4 4 3 2 2 1 2 4 4 4 5 5 5 4 4
6 4 0 4 6 3 5 6 4 5 4 3 2 1 7 7 7 6 6 6 6 5 5 5 5 4 4 3 3 3 3 2 2 1 2 3 4 4 5 6 6 6 4 4
2 6 3 2 5 6 4 7 6 4 3 3 2 4 7 6 6 6 6 5 4 3 3 4 5 5 4 4 3 3 3 2 1 2 3 3 4 4 4 6 6 6 5 6
3 5 3 1 2 8 7 4 6 7 3 1 4 6 8 4 4 4 4 4 4 4 4 4 4 4 3 3 3 3 3 2 3 3 4 4 5 5 6 6 6 6 6 6
6 3 4 3 5 4 5 8 6 6 4 1 4 4 5 7 7 6 5 6 5 4 4 4 3 3 2 2 2 2 2 3 3 4 4 4 5 6 6 6 7 7 7 7
4 3 5 4 2 1 3 5 6 5 5 6 3 7 7 9 9 9 9 7 7 7 6 4 2 1 1 1 1 2 3 3 4 5 5 5 6 6 6 6 7 7 7 8
4 5 1 4 4 1 1 5 7 5 3 4 4 7 6 8 8 8 8 6 6 6 4 2 2 1 1 2 3 4 4 5 6 5 5 6 7 6 6 7 8 7 8 8
6 5 3 8 7 4 1 2 5 6 6 5 4 7 3 1 3 5 6 6 5 5 4 2 2 2 3 4 5 5 5 6 6 5 6 7 7 7 8 8 8 8 8 9
6 5 6 6 7 4 5 2 5 6 5 6 8 8 6 5 6 6 5 5 5 5 5 4 4 4 5 5 5 6 7 6 6 6 6 7 8 8 8 9 9 9 9 9
5 4 6 7 6 3 5 7 6 7 8 9 9 8 10 9 9 7 5 5 6 6 6 7 6 5 5 6 6 6 7 7 6 6 7 8 8 8 8 9 9 9 10 10
5 5 3 4 3 3 5 7 6 6 5 6 5 8 8 4 4 4 6 8 8 8 8 8 7 7 7 7 7 6 7 7 5 6 8 8 8 8 9 9 10 10 10 10
5 7 5 4 5 3 5 5 5 5 5 8 8 8 3 4 8 9 9 9 10 10 9 9 8 8 7 7 6 7 7 6 6 7 8 8 8 9 9 10 10 10 10 10
8 7 5 2 1 4 9 5 5 5 5 7 7 6 7 8 6 5 7 10 10 10 9 9 8 7 6 6 5 6 6 6 6 7 8 8 8 9 10 10 10 10 9 9
6 8 5 5 4 6 9 4 6 6 6 7 8 7 5 4 4 4 8 9 10 10 9 8 8 7 6 6 6 5 6 6 7 8 8 8 8 9 10 11 11 10 9 10
5 5 6 5 5 6 10 4 5 5 5 7 9 10 8 8 2 7 8 10 10 9 7 7 6 5 6 7 5 5 7 7 8 8 8 8 8 9 10 11 11 10 9 10
2 3 4 5 5 8 8 3 7 4 9 7 11 11 12 11 10 6 5 9 10 9 9 8 7 6 7 6 4 6 7 8 8 8 8 8 9 9 10 10 9 10 9 10
4 4 4 5 3 8 4 9 10 11 5 6 11 12 13 13 10 7 7 9 10 9 9 8 7 8 7 6 5 7 8 8 7 7 8 9 9 9 8 9 9 9 8 9
6 7 6 8 8 7 5 9 8 5 6 7 10 12 14 13 11 10 9 10 10 10 9 8 8 8 7 6 7 8 8 7 6 6 8 9 9 9 8 8 9 9 7 7
4 4 4 4 9 8 8 8 7 8 9 9 10 11 13 13 13 12 10 10 10 10 9 7 8 8 8 7 7 9 8 6 6 7 8 8 8 9 9 7 7 7 7 7
6 3 2 5 9 10 9 6 7 6 7 7 7 9 13 15 13 12 11 11 10 9 7 7 8 9 10 8 8 8 7 5 6 7 8 8 7 8 8 8 7 8 8 8
3 3 4 7 7 4 7 8 8 5 6 7 7 8 8 11 13 11 11 10 9 9 7 8 9 9 9 7 8 7 6 5 5 6 7 6 7 7 7 8 9 9 10 12
Wind_Direction
109 91 227 231 208 199 168 162 161 76 42 70 100 129 166 170 160 173 184 179 186 194 192 188 184 170 152 149 148 153 152 153 138 122 120 104 68 26 27 27 36 31 17 4
45 260 238 214 171 145 139 134 133 93 63 92 115 130 198 201 209 211 219 205 196 205 208 207 200 194 189 186 183 176 177 171 166 147 138 137 128 53 347 350 8 12 2 348
218 247 198 156 162 150 171 170 176 154 95 58 68 359 253 250 272 253 243 224 210 213 213 216 212 210 206 207 204 191 189 184 173 145 108 76 52 20 358 348 334 334 341 335
246 252 175 194 206 171 231 189 135 119 96 35 37 311 290 277 296 260 249 237 229 228 222 221 220 219 216 216 201 195 192 194 189 160 150 157 177 245 255 270 293 309 316 315
269 230 197 207 215 157 120 81 91 92 98 58 28 37 296 327 269 257 248 236 234 232 226 225 223 222 216 200 191 191 188 203 205 187 173 181 228 243 274 292 299 303 307 306
266 261 200 168 69 108 118 75 60 54 64 31 345 36 292 253 233 251 250 244 243 242 234 229 224 211 210 189 182 178 183 213 218 212 213 222 248 266 283 289 292 292 294 297
340 337 76 121 102 76 89 89 39 8 14 276 289 266 258 255 233 227 242 251 245 241 229 219 207 196 190 178 176 168 177 225 251 259 268 261 259 259 260 268 271 275 282 283
17 314 277 181 164 163 159 136 155 194 219 274 317 258 259 253 247 239 240 243 242 239 214 200 193 184 181 176 166 161 176 224 266 272 276 275 266 255 256 259 258 261 263 268
174 273 308 65 140 134 140 153 148 123 113 41 294 289 302 258 255 237 229 222 230 217 195 186 176 167 165 172 183 184 188 227 263 267 272 281 277 264 266 271 266 265 265 273
164 248 307 329 74 54 127 139 102 109 129 262 300 283 252 254 244 236 226 221 220 201 189 179 165 161 173 193 206 204 213 239 261 271 273 279 280 276 273 277 276 274 274 274
132 166 318 14 64 174 114 98 101 104 140 150 240 269 227 223 224 218 222 215 206 199 192 187 180 177 198 228 243 258 263 265 273 275 278 282 282 283 282 277 276 277 279 279
128 118 310 293 293 284 184 157 149 146 191 167 180 264 260 236 233 216 220 212 196 189 181 180 187 204 245 266 276 275 273 271 270 274 281 280 282 287 286 282 280 280 280 280
135 104 40 349 344 352 11 137 132 123 117 151 176 262 300 262 211 210 207 198 184 178 175 182 214 244 261 272 278 279 277 274 276 280 285 288 288 287 284 283 284 283 281 282
118 111 156 199 230 254 287 216 151 135 151 194 221 248 281 242 218 213 203 193 182 188 193 206 234 252 265 273 276 278 280 278 280 283 285 285 284 283 283 285 284 283 281 281
113 170 214 237 248 244 254 253 190 191 194 192 230 230 246 230 217 215 201 182 182 198 212 223 233 249 264 276 280 277 279 282 282 284 283 280 283 285 286 287 286 286 285 284
126 175 189 277 270 266 267 265 218 209 199 211 237 255 250 229 168 188 193 187 199 215 226 234 239 247 255 262 270 276 276 280 284 280 281 284 289 290 289 289 290 290 289 287
155 148 149 254 303 359 290 253 209 214 205 181 207 238 206 179 201 211 206 198 208 220 228 232 236 238 245 252 255 262 268 280 284 280 283 287 289 290 290 293 295 291 290 288
149 142 149 179 71 242 249 259 207 205 227 209 224 234 202 206 214 224 202 199 213 221 225 231 232 236 243 246 252 260 270 277 280 282 285 287 288 290 292 294 292 290 289 288
145 137 129 141 186 270 292 244 174 175 252 215 209 215 182 99 52 304 225 205 211 214 216 221 222 223 235 247 251 260 273 278 280 281 282 284 287 290 294 295 293 292 292 293
83 107 123 140 164 226 249 243 158 114 279 226 192 192 164 126 160 257 232 204 215 219 217 218 218 219 237 247 240 248 266 275 275 275 279 283 285 286 289 289 290 291 290 290
55 81 142 166 203 253 250 179 128 158 244 219 191 188 170 182 204 224 207 197 205 210 214 212 209 219 233 237 224 244 261 265 266 274 280 284 286 285 285 285 287 292 294 295
199 175 183 149 183 258 224 146 179 215 227 198 194 189 188 209 223 228 214 207 205 208 213 206 208 229 238 228 219 244 258 260 269 277 281 286 290 290 292 290 295 296 294 298
199 195 191 191 217 245 224 214 231 204 213 213 198 199 197 207 221 220 216 213 211 210 211 204 207 228 244 233 218 238 254 263 274 279 284 290 296 294 290 290 296 301 299 298
269 164 165 252 273 270 263 254 250 219 222 226 207 197 189 202 214 214 213 212 213 214 211 204 203 223 242 240 230 235 253 265 268 277 287 293 299 302 303 298 291 293 296 299
248 201 207 264 282 308 313 290 272 254 246 245 224 204 201 205 212 208 210 211 210 210 207 198 205 220 236 242 245 247 250 252 262 276 286 293 294 296 303 304 292 286 278 270
298 230 217 245 256 243 281 309 327 297 264 244 225 223 217 208 213 208 211 209 202 204 202 206 214 223 236 241 249 254 249 238 252 277 288 292 297 300 302 307 310 291 277 282
Height
1502 1507 1510 1505 1503 1503 1506 1511 1515 1513 1510 1513 1516 1518 1517 1516 1517 1517 1517 1518 1519 1520 1522 1523 1524 1525 1525 1526 1527 1528 1528 1529 1529 1530 1530 1529 1529 1528 1528 1527 1526 1525 1524 1523
1506 1508 1499 1497 1498 1501 1506 1512 1515 1514 1511 1514 1519 1520 1518 1517 1517 1517 1518 1517 1518 1520 1521 1523 1524 1525 1525 1526 1527 1527 1528 1528 1529 1529 1529 1528 1527 1526 1526 1525 1524 1523 1521 1520
1504 1500 1495 1497 1500 1504 1507 1510 1513 1515 1515 1516 1520 1523 1521 1518 1517 1517 1518 1517 1518 1519 1520 1522 1523 1524 1525 1525 1526 1527 1527 1528 1528 1527 1527 1526 1525 1524 1523 1522 1521 1519 1518 1516
1499 1495 1495 1497 1500 1501 1509 1503 1506 1512 1521 1530 1526 1535 1524 1519 1518 1517 1516 1516 1517 1518 1519 1521 1522 1523 1524 1525 1525 1526 1526 1526 1526 1525 1525 1524 1523 1522 1520 1519 1517 1516 1514 1513
1498 1494 1495 1498 1498 1498 1505 1504 1508 1515 1524 1530 1531 1535 1529 1521 1519 1516 1514 1514 1515 1516 1517 1519 1520 1521 1522 1523 1524 1524 1524 1524 1524 1523 1522 1521 1520 1519 1517 1515 1514 1512 1511 1509
1495 1492 1492 1494 1496 1497 1503 1509 1515 1523 1530 1540 1536 1538 1534 1523 1517 1514 1512 1512 1513 1514 1515 1516 1518 1519 1520 1521 1521 1522 1522 1521 1521 1520 1519 1518 1517 1515 1513 1512 1510 1508 1507 1505
1500 1494 1492 1493 1500 1503 1505 1520 1537 1539 1547 1545 1536 1537 1532 1514 1510 1510 1510 1510 1511 1512 1513 1514 1515 1517 1518 1518 1519 1519 1518 1518 1518 1517 1516 1515 1513 1511 1509 1508 1506 1504 1502 1501
1509 1510 1494 1492 1495 1503 1508 1516 1535 1542 1547 1544 1536 1537 1522 1508 1507 1507 1507 1508 1509 1510 1511 1512 1513 1514 1515 1516 1517 1516 1516 1515 1515 1514 1513 1511 1509 1508 1506 1504 1502 1500 1498 1496
1509 1507 1491 1489 1490 1496 1508 1515 1517 1534 1540 1544 1539 1530 1515 1504 1505 1505 1505 1506 1507 1508 1509 1511 1512 1513 1514 1514 1514 1514 1513 1513 1512 1511 1509 1508 1506 1504 1502 1499 1497 1495 1493 1491
1499 1506 1495 1490 1490 1495 1499 1510 1524 1534 1544 1546 1537 1532 1525 1509 1505 1503 1504 1504 1505 1507 1508 1509 1510 1511 1512 1512 1512 1512 1511 1510 1509 1507 1506 1504 1502 1500 1497 1495 1493 1490 1488 1486
1497 1507 1503 1496 1497 1499 1503 1511 1523 1534 1534 1545 1546 1535 1506 1503 1500 1500 1501 1502 1503 1505 1507 1508 1509 1510 1511 1510 1510 1509 1508 1507 1506 1504 1502 1500 1498 1496 1493 1491 1488 1486 1484 1481
1499 1509 1513 1504 1496 1494 1496 1502 1516 1525 1532 1538 1540 1531 1496 1496 1495 1496 1498 1500 1502 1504 1506 1507 1508 1509 1509 1508 1507 1506 1505 1504 1502 1501 1499 1497 1494 1492 1489 1487 1484 1481 1479 1477
1498 1509 1521 1518 1512 1500 1498 1500 1508 1518 1530 1538 1538 1522 1495 1493 1494 1495 1496 1498 1500 1503 1504 1506 1506 1507 1507 1506 1505 1504 1502 1501 1499 1497 1495 1493 1490 1488 1485 1482 1479 1477 1474 1471
1492 1506 1516 1520 1515 1503 1501 1499 1506 1513 1525 1530 1524 1511 1497 1494 1493 1493 1495 1497 1499 1501 1503 1504 1505 1505 1504 1503 1502 1500 1499 1497 1496 1493 1491 1489 1486 1483 1480 1478 1475 1471 1468 1465
1491 1502 1503 1503 1499 1498 1498 1496 1499 1504 1508 1514 1507 1505 1495 1490 1490 1491 1493 1495 1498 1499 1501 1502 1502 1502 1501 1500 1499 1497 1496 1494 1492 1489 1487 1485 1482 1479 1476 1473 1470 1466 1463 1460
1491 1498 1500 1500 1494 1496 1497 1492 1492 1495 1497 1500 1499 1497 1487 1486 1488 1490 1492 1493 1495 1497 1498 1499 1500 1499 1498 1497 1496 1494 1492 1490 1488 1486 1483 1481 1478 1475 1471 1468 1464 1461 1457 1454
1494 1498 1505 1508 1500 1496 1502 1490 1488 1489 1489 1493 1496 1490 1485 1486 1486 1487 1489 1491 1492 1494 1496 1497 1497 1496 1495 1494 1492 1491 1489 1487 1484 1482 1479 1477 1473 1470 1467 1463 1459 1455 1452 1448
1492 1499 1507 1509 1504 1510 1498 1482 1482 1484 1484 1484 1484 1483 1482 1482 1484 1485 1487 1488 1490 1492 1493 1493 1493 1493 1492 1490 1489 1487 1485 1483 1481 1478 1476 1473 1469 1466 1462 1458 1455 1451 1447 1443
1485 1495 1507 1513 1512 1504 1490 1480 1480 1484 1484 1479 1480 1480 1481 1482 1484 1484 1484 1485 1487 1489 1490 1490 1490 1489 1488 1487 1485 1484 1482 1480 1477 1475 1472 1469 1465 1461 1458 1454 1450 1446 1442 1438
1487 1490 1502 1510 1509 1510 1489 1474 1475 1480 1486 1474 1475 1477 1480 1482 1489 1484 1480 1482 1483 1485 1486 1486 1486 1485 1484 1483 1482 1480 1478 1476 1473 1470 1467 1464 1461 1457 1453 1449 1445 1441 1438 1433
1491 1495 1500 1506 1505 1497 1476 1473 1476 1491 1486 1468 1469 1472 1475 1477 1478 1477 1477 1478 1480 1481 1482 1482 1482 1481 1481 1479 1478 1476 1474 1471 1469 1466 1463 1460 1457 1453 1449 1445 1441 1437 1433 1429
1491 1496 1499 1505 1504 1496 1470 1472 1476 1472 1463 1464 1465 1466 1469 1470 1472 1474 1474 1475 1476 1477 1478 1478 1478 1477 1477 1475 1474 1471 1469 1467 1465 1462 1459 1456 1453 1449 1445 1441 1437 1433 1429 1424
1486 1486 1487 1489 1485 1470 1467 1464 1462 1462 1462 1461 1461 1462 1464 1466 1468 1469 1470 1471 1472 1473 1473 1474 1474 1473 1473 1471 1469 1467 1465 1463 1460 1458 1455 1451 1448 1445 1441 1437 1433 1429 1424 1420
1478 1477 1479 1480 1471 1464 1462 1461 1459 1458 1458 1458 1458 1459 1460 1461 1462 1464 1466 1467 1468 1468 1469 1470 1470 1469 1469 1467 1465 1463 1461 1459 1456 1453 1450 1447 1444 1441 1437 1434 1429 1425 1420 1416
1475 1474 1476 1475 1468 1462 1459 1458 1456 1455 1455 1455 1455 1455 1455 1456 1458 1459 1460 1462 1463 1464 1465 1466 1465 1465 1464 1463 1461 1459 1457 1454 1452 1449 1446 1443 1440 1437 1433 1430 1426 1421 1417 1413
1475 1476 1476 1474 1465 1465 1461 1458 1455 1453 1452 1451 1451 1450 1451 1452 1453 1454 1456 1457 1459 1460 1461 1462 1461 1461 1460 1459 1457 1455 1453 1450 1448 1445 1442 1439 1436 1433 1429 1426 1422 1418 1415 1410